Location: Unspecified
(47.6579°N, 23.5637°E)
Time: 13:37:26
(UTC+02:00)

Envisat - Pass Details

Date: 02 December 2021
Orbit: 764 x 766 km, 98.2° (Epoch: 23 January)

Event Time Altitude Azimuth Distance (km) Brightness Sun altitude
Rises 05:25:09 0° 15° (NNE) 3,245 6.4 -24.3°
Reaches altitude 10° 05:27:29 10° 17° (NNE) 2,314 5.6 -23.9°
Maximum altitude 05:32:35 73° 102° (ESE) 804 3.2 -23.1°
Drops below altitude 10° 05:37:38 10° 188° (S) 2,296 5.5 -22.2°
Sets 05:39:56 0° 190° (S) 3,217 6.2 -21.8°
